Location: Bowman Observatory
(41.0326°N, 73.6210°W)
Time: 19:35:55
(UTC-04:00)

Cosmos 2297 - Visible Passes

Search period start: 22 August 2014 00:00
Search period end: 01 September 2014 00:00
Orbit: 834 x 861 km, 71.0° (Epoch: 22 August)

Date Brightness Start Highest point End Pass type
(mag) Time Alt. Az. Time Alt. Az. Time Alt. Az.
22 Aug 4.9 00:03:40 38° NNW 00:03:40 38° NNW 00:08:05 10° N visible
22 Aug 5.4 22:08:19 19° ENE 22:08:19 19° ENE 22:10:15 10° NE visible
22 Aug 4.9 23:50:12 40° NW 23:50:12 40° NW 23:54:50 10° N visible
23 Aug 5.3 21:54:45 20° ENE 21:54:45 20° ENE 21:56:59 10° NE visible
23 Aug 4.8 23:36:38 42° NW 23:36:38 42° NW 23:41:36 10° NNE visible
24 Aug 5.1 21:41:02 22° ENE 21:41:02 22° ENE 21:43:43 10° NE visible
24 Aug 4.7 23:22:55 44° WNW 23:22:55 44° WNW 23:28:23 10° NNE visible
25 Aug 4.9 21:27:08 24° E 21:27:08 24° E 21:30:26 10° NE visible
25 Aug 4.6 23:08:59 43° W 23:09:39 44° WNW 23:15:09 10° NNE visible
26 Aug 4.7 21:12:54 26° E 21:12:54 26° E 21:17:10 10° NE visible
26 Aug 4.6 22:54:43 36° WSW 22:56:24 45° WNW 23:01:55 10° NNE visible
27 Aug 4.6 20:58:00 23° ESE 20:59:18 25° ESE 21:03:54 10° NE visible
27 Aug 4.6 22:39:45 22° WSW 22:43:09 46° WNW 22:48:41 10° NNE visible
28 Aug 4.7 20:41:32 10° SSE 20:46:04 25° ESE 20:50:38 10° NE visible
28 Aug 4.6 22:24:25 10° SW 22:29:54 47° WNW 22:35:27 10° NNE visible
29 Aug 6.7 05:36:33 10° NNE 05:39:35 14° NE 05:42:37 10° ENE visible
29 Aug 4.7 20:28:21 10° SSE 20:32:50 24° ESE 20:37:21 10° NE visible
29 Aug 4.6 22:11:10 10° SW 22:16:39 48° WNW 22:22:13 10° NNE visible
30 Aug 6.7 05:23:21 10° NNE 05:26:20 14° NE 05:29:17 10° ENE visible
30 Aug 4.7 20:15:09 10° SSE 20:19:36 24° E 20:24:05 10° NE visible
30 Aug 4.6 21:57:54 10° SW 22:03:25 49° WNW 22:08:59 10° NNE visible
31 Aug 6.7 05:10:10 10° NNE 05:13:04 14° NE 05:15:57 10° ENE visible
31 Aug 4.7 20:01:58 10° SSE 20:06:23 24° E 20:10:49 10° NE visible
31 Aug 4.6 21:44:39 10° SW 21:50:10 50° WNW 21:55:45 10° NNE visible
